| time (UTC) | temp F | wind direction | speed knots | gust knots | rain 1hr in | rain 24hr in | rain mn in | humidity % | barometer mb |
| 20260510192742 | 57 | 239 | 0.0 | 0.9 | 0.00 | 0.01 | 0.01 | 51 | 1015.8 |
| 20260510192237 | 58 | 246 | 0.0 | 0.9 | 0.00 | 0.01 | 0.01 | 48 | 1015.7 |
| 20260510191734 | 56 | 205 | 0.9 | 0.9 | 0.00 | 0.01 | 0.01 | 44 | 1015.6 |
| 20260510191230 | 57 | 340 | 4.3 | 5.2 | 0.00 | 0.01 | 0.01 | 45 | 1016.0 |
| 20260510190728 | 56 | 237 | 0.9 | 0.9 | 0.00 | 0.01 | 0.01 | 43 | 1015.7 |
| 20260510190224 | 56 | 230 | 0.0 | 0.9 | 0.00 | 0.01 | 0.01 | 43 | 1015.6 |
| 20260510185721 | 55 | 17 | 2.6 | 4.3 | 0.00 | 0.01 | 0.01 | 41 | 1015.3 |
| 20260510185220 | 56 | 217 | 2.6 | 4.3 | 0.00 | 0.01 | 0.01 | 46 | 1015.2 |
| 20260510184716 | 56 | 262 | 1.7 | 1.7 | 0.00 | 0.01 | 0.01 | 48 | 1015.2 |
| 20260510184213 | 57 | 27 | 2.6 | 2.6 | 0.00 | 0.01 | 0.01 | 48 | 1015.3 |
| 20260510183708 | 56 | 218 | 1.7 | 1.7 | 0.00 | 0.01 | 0.01 | 47 | 1015.3 |
| 20260510183202 | 56 | 14 | 4.3 | 6.1 | 0.00 | 0.01 | 0.01 | 48 | 1015.1 |
| 20260510182659 | 56 | 303 | 2.6 | 2.6 | 0.00 | 0.01 | 0.01 | 49 | 1015.2 |
| 20260510182155 | 56 | 25 | 3.5 | 5.2 | 0.00 | 0.01 | 0.01 | 46 | 1015.1 |
| 20260510181653 | 56 | 8 | 2.6 | 4.3 | 0.00 | 0.01 | 0.01 | 47 | 1014.9 |
| 20260510181149 | 57 | 287 | 2.6 | 2.6 | 0.00 | 0.01 | 0.01 | 49 | 1015.1 |
| 20260510180645 | 57 | 11 | 2.6 | 4.3 | 0.00 | 0.01 | 0.01 | 53 | 1014.8 |
| 20260510180143 | 56 | 225 | 0.9 | 1.7 | 0.00 | 0.01 | 0.01 | 45 | 1015.0 |
| 20260510175638 | 57 | 240 | 1.7 | 2.6 | 0.00 | 0.01 | 0.01 | 43 | 1015.0 |
| 20260510175134 | 57 | 276 | 3.5 | 4.3 | 0.00 | 0.01 | 0.01 | 48 | 1014.8 |
| 20260510174632 | 55 | 273 | 0.9 | 1.7 | 0.00 | 0.01 | 0.01 | 48 | 1014.9 |
| 20260510174130 | 56 | 223 | 0.9 | 0.9 | 0.00 | 0.01 | 0.01 | 51 | 1014.8 |
| 20260510173625 | 55 | 332 | 0.9 | 1.7 | 0.00 | 0.01 | 0.01 | 58 | 1014.8 |
| 20260510173121 | 55 | 36 | 2.6 | 2.6 | 0.00 | 0.01 | 0.01 | 49 | 1014.9 |
| 20260510172617 | 56 | 80 | 1.7 | 1.7 | 0.00 | 0.01 | 0.01 | 57 | 1015.1 |
| 20260510172113 | 55 | 51 | 1.7 | 2.6 | 0.00 | 0.01 | 0.01 | 54 | 1015.4 |
| 20260510171610 | 55 | 48 | 2.6 | 2.6 | 0.00 | 0.01 | 0.01 | 55 | 1015.3 |
| 20260510171108 | 55 | 9 | 2.6 | 2.6 | 0.00 | 0.01 | 0.01 | 53 | 1015.4 |
| 20260510170604 | 56 | 5 | 2.6 | 2.6 | 0.00 | 0.01 | 0.01 | 55 | 1015.2 |
| 20260510170100 | 55 | 290 | 1.7 | 1.7 | 0.00 | 0.01 | 0.01 | 57 | 1015.1 |
| 20260510165556 | 55 | 69 | 2.6 | 2.6 | 0.00 | 0.01 | 0.01 | 54 | 1014.9 |
| 20260510165052 | 55 | 48 | 0.9 | 1.7 | 0.00 | 0.01 | 0.01 | 55 | 1014.9 |
| 20260510164550 | 55 | 49 | 3.5 | 4.3 | 0.00 | 0.01 | 0.01 | 51 | 1015.0 |
| 20260510164046 | 55 | 43 | 3.5 | 4.3 | 0.00 | 0.01 | 0.01 | 53 | 1015.1 |
| 20260510163542 | 56 | 229 | 0.9 | 0.9 | 0.00 | 0.01 | 0.01 | 51 | 1015.0 |
| 20260510163038 | 57 | 274 | 0.9 | 0.9 | 0.00 | 0.01 | 0.01 | 55 | 1014.9 |
| 20260510162533 | 57 | 212 | 0.0 | 0.0 | 0.00 | 0.01 | 0.01 | 49 | 1014.8 |
| 20260510162031 | 55 | 211 | 0.0 | 0.9 | 0.00 | 0.01 | 0.01 | 53 | 1014.9 |
| 20260510161526 | 53 | 58 | 1.7 | 2.6 | 0.00 | 0.01 | 0.01 | 55 | 1015.0 |
| 20260510161023 | 55 | 221 | 0.0 | 0.9 | 0.00 | 0.01 | 0.01 | 57 | 1014.6 |
| 20260510160520 | 54 | 359 | 4.3 | 5.2 | 0.00 | 0.01 | 0.01 | 55 | 1014.7 |
| 20260510160020 | 56 | 277 | 1.7 | 2.6 | 0.00 | 0.01 | 0.01 | 54 | 1014.7 |
| 20260510155516 | 54 | 274 | 0.9 | 0.9 | 0.00 | 0.01 | 0.01 | 52 | 1014.7 |
| 20260510155013 | 53 | 314 | 3.5 | 7.0 | 0.00 | 0.01 | 0.01 | 55 | 1014.7 |
| 20260510154509 | 55 | 7 | 2.6 | 2.6 | 0.00 | 0.01 | 0.01 | 57 | 1014.4 |
| 20260510154008 | 54 | 11 | 3.5 | 5.2 | 0.00 | 0.01 | 0.01 | 54 | 1014.5 |
| 20260510153504 | 54 | 205 | 1.7 | 2.6 | 0.00 | 0.01 | 0.01 | 54 | 1014.4 |
| 20260510153001 | 54 | 193 | 2.6 | 2.6 | 0.00 | 0.01 | 0.01 | 55 | 1014.7 |
| 20260510152458 | 54 | 299 | 1.7 | 1.7 | 0.00 | 0.01 | 0.01 | 55 | 1014.5 |
| 20260510151954 | 55 | 189 | 2.6 | 2.6 | 0.00 | 0.01 | 0.01 | 52 | 1014.4 |
| 20260510151452 | 54 | 221 | 0.0 | 0.9 | 0.00 | 0.01 | 0.01 | 54 | 1014.3 |
| 20260510150948 | 54 | 45 | 2.6 | 4.3 | 0.00 | 0.01 | 0.01 | 56 | 1014.3 |
| 20260510150444 | 53 | 260 | 0.9 | 0.9 | 0.00 | 0.01 | 0.01 | 57 | 1014.3 |
| 20260510145940 | 53 | 281 | 0.0 | 0.9 | 0.00 | 0.01 | 0.01 | 57 | 1014.1 |
| 20260510145436 | 53 | 322 | 1.7 | 2.6 | 0.00 | 0.01 | 0.01 | 55 | 1014.6 |
| 20260510144933 | 52 | 275 | 1.7 | 1.7 | 0.00 | 0.01 | 0.01 | 58 | 1014.3 |
| 20260510144430 | 51 | 172 | 0.9 | 0.9 | 0.00 | 0.01 | 0.01 | 59 | 1014.1 |
| 20260510143925 | 52 | 307 | 2.6 | 2.6 | 0.00 | 0.01 | 0.01 | 58 | 1014.0 |
| 20260510143421 | 52 | 352 | 5.2 | 6.1 | 0.00 | 0.01 | 0.01 | 58 | 1014.0 |
| 20260510142918 | 51 | 351 | 0.9 | 1.7 | 0.00 | 0.01 | 0.01 | 57 | 1014.1 |
| 20260510142415 | 52 | 308 | 0.9 | 1.7 | 0.00 | 0.01 | 0.01 | 60 | 1014.1 |
| 20260510141911 | 52 | 159 | 0.9 | 0.9 | 0.00 | 0.01 | 0.01 | 58 | 1013.9 |
| 20260510141409 | 51 | 217 | 0.9 | 1.7 | 0.00 | 0.01 | 0.01 | 60 | 1013.9 |
| 20260510140905 | 51 | 164 | 0.9 | 0.9 | 0.00 | 0.01 | 0.01 | 61 | 1014.0 |
| 20260510140402 | 50 | 247 | 0.9 | 1.7 | 0.00 | 0.01 | 0.01 | 60 | 1014.0 |
| 20260510135901 | 51 | 32 | 2.6 | 2.6 | 0.00 | 0.01 | 0.01 | 62 | 1014.2 |
| 20260510135357 | 50 | 215 | 0.0 | 0.0 | 0.00 | 0.01 | 0.01 | 62 | 1014.0 |
| 20260510134855 | 50 | 301 | 4.3 | 5.2 | 0.00 | 0.01 | 0.01 | 62 | 1013.8 |
| 20260510134351 | 50 | 11 | 4.3 | 7.0 | 0.00 | 0.01 | 0.01 | 64 | 1013.9 |
| 20260510133847 | 50 | 14 | 1.7 | 1.7 | 0.00 | 0.01 | 0.01 | 65 | 1014.1 |
| 20260510133343 | 49 | 45 | 1.7 | 1.7 | 0.00 | 0.01 | 0.01 | 66 | 1013.9 |
| 20260510132839 | 49 | 30 | 0.9 | 1.7 | 0.00 | 0.01 | 0.01 | 67 | 1013.6 |
| 20260510132338 | 49 | 237 | 0.9 | 0.9 | 0.00 | 0.01 | 0.01 | 68 | 1013.5 |
| 20260510131834 | 49 | 224 | 0.0 | 0.9 | 0.00 | 0.01 | 0.01 | 69 | 1013.7 |
| 20260510131332 | 49 | 258 | 1.7 | 2.6 | 0.00 | 0.01 | 0.01 | 71 | 1013.2 |
| 20260510130828 | 49 | 15 | 6.1 | 7.8 | 0.00 | 0.01 | 0.01 | 69 | 1013.2 |
| 20260510130325 | 48 | 44 | 4.3 | 6.1 | 0.00 | 0.01 | 0.01 | 69 | 1012.9 |
| 20260510125821 | 48 | 15 | 3.5 | 5.2 | 0.00 | 0.01 | 0.01 | 71 | 1012.9 |
| 20260510125318 | 49 | 305 | 2.6 | 4.3 | 0.00 | 0.01 | 0.01 | 70 | 1013.4 |
| 20260510124815 | 49 | 353 | 2.6 | 4.3 | 0.00 | 0.01 | 0.01 | 72 | 1013.0 |
| 20260510124312 | 49 | 9 | 1.7 | 1.7 | 0.00 | 0.01 | 0.01 | 72 | 1012.9 |
| 20260510123807 | 48 | 2 | 3.5 | 4.3 | 0.00 | 0.01 | 0.01 | 71 | 1012.6 |
| 20260510123303 | 49 | 313 | 2.6 | 2.6 | 0.00 | 0.01 | 0.01 | 72 | 1013.0 |
| 20260510122759 | 49 | 289 | 2.6 | 2.6 | 0.00 | 0.01 | 0.01 | 70 | 1012.6 |
| 20260510122256 | 49 | 19 | 2.6 | 4.3 | 0.00 | 0.01 | 0.01 | 71 | 1012.5 |
| 20260510121752 | 49 | 254 | 0.9 | 0.9 | 0.00 | 0.01 | 0.01 | 72 | 1012.8 |
| 20260510121250 | 49 | 267 | 1.7 | 2.6 | 0.00 | 0.01 | 0.01 | 73 | 1012.6 |
| 20260510120747 | 48 | 292 | 0.0 | 0.9 | 0.00 | 0.01 | 0.01 | 73 | 1012.4 |
| 20260510120243 | 48 | 291 | 2.6 | 5.2 | 0.00 | 0.01 | 0.01 | 72 | 1012.3 |
| 20260510115739 | 48 | 44 | 2.6 | 4.3 | 0.00 | 0.01 | 0.01 | 72 | 1012.3 |
| 20260510115238 | 48 | 235 | 0.9 | 0.9 | 0.00 | 0.01 | 0.01 | 73 | 1012.2 |
| 20260510114732 | 48 | 238 | 2.6 | 4.3 | 0.00 | 0.01 | 0.01 | 72 | 1011.6 |
| 20260510114230 | 48 | 38 | 4.3 | 5.2 | 0.00 | 0.01 | 0.01 | 71 | 1011.7 |
| 20260510113725 | 48 | 27 | 3.5 | 5.2 | 0.00 | 0.01 | 0.01 | 73 | 1011.5 |
| 20260510113222 | 48 | 344 | 5.2 | 6.1 | 0.00 | 0.01 | 0.01 | 71 | 1011.6 |
| 20260510112718 | 48 | 213 | 2.6 | 2.6 | 0.00 | 0.01 | 0.01 | 72 | 1011.5 |
| 20260510112216 | 48 | 341 | 0.9 | 1.7 | 0.00 | 0.01 | 0.01 | 73 | 1011.3 |
| 20260510111711 | 48 | 344 | 1.7 | 2.6 | 0.00 | 0.01 | 0.01 | 78 | 1011.2 |
| 20260510111209 | 48 | 273 | 1.7 | 1.7 | 0.00 | 0.01 | 0.01 | 79 | 1010.9 |
| 20260510110709 | 48 | 337 | 2.6 | 4.3 | 0.00 | 0.01 | 0.01 | 78 | 1010.9 |
| 20260510110207 | 48 | 357 | 2.6 | 4.3 | 0.00 | 0.01 | 0.01 | 78 | 1011.0 |
| 20260510105706 | 48 | 244 | 0.9 | 0.9 | 0.00 | 0.01 | 0.01 | 79 | 1010.8 |
| 20260510105201 | 48 | 332 | 3.5 | 4.3 | 0.00 | 0.01 | 0.01 | 79 | 1010.7 |
| 20260510104658 | 48 | 320 | 3.5 | 5.2 | 0.00 | 0.01 | 0.01 | 81 | 1010.1 |
| 20260510104155 | 48 | 312 | 1.7 | 1.7 | 0.00 | 0.01 | 0.01 | 81 | 1010.4 |
| 20260510103652 | 48 | 249 | 0.9 | 1.7 | 0.00 | 0.01 | 0.01 | 82 | 1010.2 |
| 20260510103148 | 48 | 300 | 0.9 | 1.7 | 0.00 | 0.01 | 0.01 | 82 | 1009.9 |
| 20260510102648 | 48 | 241 | 0.9 | 0.9 | 0.00 | 0.01 | 0.01 | 82 | 1009.8 |
| 20260510102145 | 48 | 279 | 2.6 | 4.3 | 0.00 | 0.01 | 0.01 | 82 | 1010.0 |
| 20260510101642 | 48 | 238 | 1.7 | 1.7 | 0.00 | 0.01 | 0.01 | 83 | 1009.7 |
| 20260510101140 | 48 | 352 | 2.6 | 2.6 | 0.00 | 0.01 | 0.01 | 84 | 1009.6 |
| 20260510100636 | 48 | 262 | 1.7 | 1.7 | 0.00 | 0.01 | 0.01 | 84 | 1009.6 |
| 20260510100134 | 48 | 235 | 0.9 | 0.9 | 0.00 | 0.01 | 0.01 | 84 | 1009.6 |
| 20260510095629 | 48 | 285 | 1.7 | 2.6 | 0.00 | 0.01 | 0.01 | 84 | 1009.7 |
| 20260510095124 | 48 | 212 | 0.9 | 1.7 | 0.00 | 0.01 | 0.01 | 85 | 1009.6 |
| 20260510094623 | 48 | 270 | 0.9 | 0.9 | 0.00 | 0.01 | 0.01 | 85 | 1009.3 |
| 20260510094119 | 48 | 252 | 0.9 | 0.9 | 0.00 | 0.01 | 0.01 | 85 | 1009.6 |
| 20260510093616 | 48 | 277 | 0.9 | 0.9 | 0.00 | 0.01 | 0.01 | 85 | 1009.4 |
| 20260510093113 | 48 | 229 | 0.0 | 0.9 | 0.00 | 0.01 | 0.01 | 85 | 1009.3 |
| 20260510092609 | 48 | 325 | 2.6 | 2.6 | 0.00 | 0.01 | 0.01 | 85 | 1009.0 |
| 20260510092109 | 48 | 270 | 0.9 | 1.7 | 0.00 | 0.01 | 0.01 | 84 | 1008.9 |
| 20260510091606 | 48 | 236 | 3.5 | 5.2 | 0.00 | 0.01 | 0.01 | 85 | 1008.8 |
| 20260510091102 | 49 | 319 | 2.6 | 2.6 | 0.00 | 0.01 | 0.01 | 84 | 1008.7 |
| 20260510090559 | 49 | 316 | 2.6 | 2.6 | 0.00 | 0.01 | 0.01 | 83 | 1008.8 |
| 20260510090055 | 49 | 328 | 2.6 | 4.3 | 0.00 | 0.01 | 0.01 | 82 | 1008.6 |
| 20260510085550 | 49 | 286 | 0.9 | 1.7 | 0.00 | 0.01 | 0.01 | 82 | 1008.5 |
| 20260510085046 | 49 | 233 | 0.9 | 0.9 | 0.00 | 0.01 | 0.01 | 83 | 1008.6 |
| 20260510084543 | 49 | 272 | 1.7 | 1.7 | 0.00 | 0.01 | 0.01 | 86 | 1008.6 |
| 20260510084039 | 48 | 85 | 1.7 | 1.7 | 0.00 | 0.01 | 0.01 | 89 | 1008.4 |
| 20260510083536 | 48 | 218 | 0.0 | 0.0 | 0.00 | 0.01 | 0.01 | 92 | 1008.0 |
| 20260510083032 | 48 | 235 | 0.0 | 0.9 | 0.00 | 0.01 | 0.01 | 93 | 1008.1 |
| 20260510082529 | 47 | 239 | 0.0 | 0.0 | 0.00 | 0.01 | 0.01 | 94 | 1008.0 |
| 20260510082025 | 47 | 221 | 0.0 | 0.0 | 0.00 | 0.01 | 0.01 | 94 | 1008.0 |
| 20260510081520 | 47 | 221 | 0.0 | 0.0 | 0.00 | 0.01 | 0.01 | 94 | 1008.0 |
| 20260510081016 | 46 | 220 | 0.0 | 0.0 | 0.00 | 0.01 | 0.01 | 94 | 1007.8 |
| 20260510080515 | 47 | 228 | 0.0 | 0.0 | 0.00 | 0.01 | 0.01 | 93 | 1007.5 |
| 20260510080012 | 47 | 228 | 0.0 | 0.0 | 0.00 | 0.01 | 0.01 | 93 | 1007.5 |
| 20260510075509 | 47 | 227 | 0.0 | 0.0 | 0.00 | 0.01 | 0.01 | 93 | 1007.4 |
| 20260510075006 | 47 | 227 | 0.0 | 0.0 | 0.00 | 0.01 | 0.01 | 93 | 1007.2 |
| 20260510074504 | 47 | 241 | 0.0 | 0.0 | 0.00 | 0.01 | 0.01 | 93 | 1006.9 |
| 20260510073959 | 47 | 216 | 0.0 | 0.0 | 0.00 | 0.01 | 0.01 | 93 | 1007.0 |
| 20260510073455 | 47 | 215 | 0.0 | 0.0 | 0.00 | 0.01 | 0.01 | 93 | 1006.9 |
| 20260510072952 | 47 | 226 | 0.0 | 0.0 | 0.00 | 0.01 | 0.01 | 92 | 1006.8 |
| 20260510072449 | 47 | 226 | 0.0 | 0.0 | 0.00 | 0.01 | 0.01 | 92 | 1007.0 |
| 20260510071944 | 48 | 220 | 0.0 | 0.0 | 0.00 | 0.01 | 0.01 | 92 | 1006.7 |
| 20260510071441 | 48 | 225 | 0.0 | 0.0 | 0.00 | 0.01 | 0.01 | 91 | 1006.8 |
| 20260510070939 | 48 | 228 | 0.0 | 0.0 | 0.00 | 0.01 | 0.01 | 90 | 1006.9 |
| 20260510070436 | 48 | 224 | 0.0 | 0.9 | 0.00 | 0.01 | 0.01 | 89 | 1006.8 |
| 20260510065931 | 49 | 225 | 0.0 | 0.0 | 0.00 | 0.01 | 0.01 | 89 | 1006.6 |
| 20260510065428 | 49 | 222 | 0.0 | 0.0 | 0.00 | 0.01 | 0.01 | 87 | 1006.6 |
| 20260510064924 | 49 | 223 | 0.0 | 0.0 | 0.00 | 0.01 | 0.01 | 87 | 1006.7 |
| 20260510064422 | 50 | 252 | 0.9 | 0.9 | 0.00 | 0.01 | 0.01 | 87 | 1006.6 |
| 20260510063919 | 50 | 224 | 0.0 | 0.0 | 0.00 | 0.01 | 0.01 | 86 | 1006.3 |
| 20260510063415 | 50 | 223 | 0.0 | 0.0 | 0.00 | 0.01 | 0.01 | 85 | 1006.5 |
| 20260510062913 | 50 | 218 | 0.0 | 0.0 | 0.00 | 0.01 | 0.01 | 84 | 1006.5 |
| 20260510062408 | 51 | 219 | 0.0 | 0.9 | 0.00 | 0.01 | 0.01 | 83 | 1006.5 |
| 20260510061904 | 51 | 218 | 0.9 | 0.9 | 0.00 | 0.01 | 0.01 | 82 | 1006.3 |
| 20260510061400 | 51 | 17 | 2.6 | 2.6 | 0.00 | 0.01 | 0.01 | 83 | 1006.2 |
| 20260510060856 | 51 | 232 | 1.7 | 1.7 | 0.00 | 0.01 | 0.01 | 82 | 1006.4 |
| 20260510060353 | 52 | 15 | 0.9 | 1.7 | 0.00 | 0.01 | 0.01 | 83 | 1006.4 |
| 20260510055849 | 52 | 212 | 0.9 | 1.7 | 0.00 | 0.01 | 0.01 | 84 | 1006.1 |
| 20260510055349 | 52 | 274 | 0.9 | 0.9 | 0.00 | 0.01 | 0.01 | 85 | 1006.2 |
| 20260510054848 | 52 | 322 | 5.2 | 7.0 | 0.00 | 0.01 | 0.01 | 85 | 1006.2 |
| 20260510054344 | 52 | 245 | 3.5 | 5.2 | 0.00 | 0.01 | 0.01 | 88 | 1006.1 |
| 20260510053839 | 52 | 273 | 1.7 | 1.7 | 0.00 | 0.01 | 0.01 | 91 | 1006.0 |
| 20260510053335 | 53 | 222 | 1.7 | 1.7 | 0.00 | 0.01 | 0.01 | 92 | 1006.0 |
| 20260510052831 | 53 | 87 | 2.6 | 2.6 | 0.00 | 0.01 | 0.01 | 92 | 1005.7 |
| 20260510052327 | 55 | 1 | 6.1 | 7.8 | 0.00 | 0.01 | 0.01 | 93 | 1005.5 |
| 20260510051824 | 55 | 55 | 0.9 | 1.7 | 0.00 | 0.01 | 0.01 | 92 | 1005.3 |
| 20260510051321 | 56 | 250 | 1.7 | 1.7 | 0.00 | 0.01 | 0.01 | 91 | 1005.0 |
| 20260510050817 | 57 | 224 | 0.0 | 0.0 | 0.00 | 0.01 | 0.01 | 88 | 1004.8 |
| 20260510050314 | 57 | 221 | 0.9 | 0.9 | 0.07 | 0.01 | 0.01 | 88 | 1004.6 |
| 20260510045811 | 58 | 270 | 0.9 | 1.7 | 0.07 | 0.01 | 0.01 | 87 | 1004.4 |
| 20260510045308 | 57 | 58 | 1.7 | 1.7 | 0.00 | 0.00 | 0.00 | 88 | 1004.9 |
| 20260510044805 | 57 | 343 | 1.7 | 1.7 | 0.00 | 0.00 | 0.00 | 88 | 1004.3 |
| 20260510044302 | 57 | 212 | 1.7 | 1.7 | 0.00 | 0.00 | 0.00 | 89 | 1004.6 |
| 20260510043758 | 57 | 227 | 0.0 | 0.0 | 0.00 | 0.00 | 0.00 | 88 | 1004.4 |
| 20260510043254 | 57 | 269 | 1.7 | 1.7 | 0.00 | 0.00 | 0.00 | 88 | 1003.8 |
| 20260510042752 | 56 | 213 | 0.0 | 0.0 | 0.00 | 0.00 | 0.00 | 88 | 1003.0 |
| 20260510042247 | 56 | 207 | 0.9 | 0.9 | 0.00 | 0.00 | 0.00 | 88 | 1003.3 |
| 20260510041744 | 57 | 212 | 0.9 | 0.9 | 0.00 | 0.00 | 0.00 | 87 | 1002.9 |
| 20260510041242 | 57 | 209 | 0.9 | 0.9 | 0.00 | 0.00 | 0.00 | 86 | 1003.1 |
| 20260510040739 | 57 | 213 | 0.0 | 0.9 | 0.00 | 0.00 | 0.00 | 87 | 1003.0 |
| 20260510040236 | 57 | 214 | 0.0 | 0.0 | 0.00 | 0.00 | 0.00 | 88 | 1002.9 |
| 20260510035731 | 57 | 216 | 0.0 | 0.9 | 0.00 | 0.29 | 0.29 | 87 | 1002.8 |
| 20260510035227 | 57 | 213 | 0.0 | 0.9 | 0.00 | 0.29 | 0.29 | 87 | 1002.8 |
| 20260510034723 | 57 | 227 | 0.9 | 1.7 | 0.00 | 0.29 | 0.29 | 87 | 1003.0 |
| 20260510034221 | 57 | 200 | 1.7 | 1.7 | 0.00 | 0.29 | 0.29 | 87 | 1002.9 |
| 20260510033717 | 58 | 201 | 0.9 | 0.9 | 0.00 | 0.29 | 0.29 | 87 | 1003.1 |
| 20260510033215 | 58 | 190 | 0.9 | 1.7 | 0.00 | 0.29 | 0.29 | 87 | 1003.1 |
| 20260510032711 | 58 | 203 | 1.7 | 1.7 | 0.00 | 0.29 | 0.29 | 87 | 1003.1 |
| 20260510032207 | 57 | 216 | 2.6 | 2.6 | 0.00 | 0.29 | 0.29 | 86 | 1002.9 |
| 20260510031701 | 57 | 221 | 1.7 | 1.7 | 0.00 | 0.29 | 0.29 | 87 | 1002.9 |
| 20260510031159 | 57 | 198 | 0.9 | 1.7 | 0.00 | 0.29 | 0.29 | 88 | 1002.8 |
| 20260510030658 | 56 | 224 | 0.9 | 0.9 | 0.00 | 0.29 | 0.29 | 89 | 1002.7 |
| 20260510030156 | 55 | 225 | 1.7 | 1.7 | 0.00 | 0.29 | 0.29 | 93 | 1003.3 |
| 20260510025653 | 55 | 204 | 0.9 | 1.7 | 0.00 | 0.29 | 0.29 | 94 | 1002.9 |
| 20260510025150 | 55 | 209 | 1.7 | 1.7 | 0.00 | 0.29 | 0.29 | 95 | 1003.0 |
| 20260510024647 | 55 | 208 | 0.9 | 0.9 | 0.00 | 0.29 | 0.29 | 94 | 1002.7 |
| 20260510024143 | 55 | 209 | 0.9 | 1.7 | 0.00 | 0.29 | 0.29 | 94 | 1002.8 |
| 20260510023639 | 56 | 207 | 1.7 | 1.7 | 0.00 | 0.29 | 0.29 | 93 | 1002.9 |
| 20260510023137 | 56 | 193 | 0.9 | 1.7 | 0.00 | 0.29 | 0.29 | 94 | 1002.8 |
| 20260510022637 | 55 | 207 | 0.9 | 1.7 | 0.00 | 0.29 | 0.29 | 94 | 1002.9 |
| 20260510022132 | 55 | 198 | 0.9 | 1.7 | 0.00 | 0.29 | 0.29 | 96 | 1003.1 |
| 20260510021628 | 55 | 197 | 1.7 | 1.7 | 0.00 | 0.29 | 0.29 | 97 | 1003.0 |
| 20260510021126 | 55 | 230 | 2.6 | 4.3 | 0.00 | 0.29 | 0.29 | 98 | 1003.3 |
| 20260510020626 | 54 | 209 | 0.9 | 1.7 | 0.00 | 0.29 | 0.29 | 98 | 1002.8 |
| 20260510020121 | 54 | 205 | 0.9 | 1.7 | 0.00 | 0.29 | 0.29 | 97 | 1002.7 |
| 20260510015618 | 54 | 208 | 0.9 | 0.9 | 0.00 | 0.29 | 0.29 | 97 | 1002.3 |
| 20260510015114 | 55 | 214 | 0.0 | 0.0 | 0.00 | 0.29 | 0.29 | 97 | 1002.5 |
| 20260510014610 | 55 | 211 | 0.9 | 0.9 | 0.00 | 0.29 | 0.29 | 97 | 1002.1 |
| 20260510014108 | 55 | 213 | 0.0 | 0.9 | 0.00 | 0.29 | 0.29 | 96 | 1002.3 |
| 20260510013602 | 55 | 202 | 0.9 | 0.9 | 0.00 | 0.29 | 0.29 | 96 | 1002.2 |
| 20260510013058 | 55 | 214 | 0.9 | 0.9 | 0.00 | 0.29 | 0.29 | 96 | 1002.4 |
| 20260510012557 | 55 | 209 | 0.9 | 0.9 | 0.00 | 0.29 | 0.29 | 96 | 1002.2 |
| 20260510012054 | 55 | 214 | 0.0 | 0.0 | 0.00 | 0.29 | 0.29 | 95 | 1002.3 |
| 20260510011553 | 55 | 211 | 0.9 | 0.9 | 0.00 | 0.29 | 0.29 | 95 | 1002.0 |
| 20260510011049 | 55 | 211 | 0.9 | 0.9 | 0.00 | 0.29 | 0.29 | 94 | 1002.3 |
| 20260510010546 | 55 | 203 | 0.9 | 0.9 | 0.00 | 0.29 | 0.29 | 95 | 1002.0 |
| 20260510010043 | 55 | 212 | 0.9 | 0.9 | 0.00 | 0.29 | 0.29 | 95 | 1002.1 |
| 20260510005539 | 56 | 216 | 0.0 | 0.9 | 0.00 | 0.29 | 0.29 | 94 | 1002.0 |
| 20260510005037 | 56 | 214 | 0.9 | 0.9 | 0.00 | 0.29 | 0.29 | 94 | 1002.0 |
| 20260510004534 | 56 | 227 | 0.9 | 0.9 | 0.00 | 0.29 | 0.29 | 94 | 1001.9 |
| 20260510004032 | 56 | 210 | 0.9 | 1.7 | 0.00 | 0.29 | 0.29 | 94 | 1002.1 |
| 20260510003529 | 56 | 213 | 0.0 | 0.9 | 0.00 | 0.29 | 0.29 | 94 | 1002.0 |
| 20260510003024 | 56 | 211 | 2.6 | 4.3 | 0.00 | 0.29 | 0.29 | 94 | 1002.1 |
| 20260510002520 | 56 | 227 | 1.7 | 1.7 | 0.00 | 0.29 | 0.29 | 95 | 1002.1 |
| 20260510002017 | 57 | 205 | 0.0 | 0.0 | 0.00 | 0.29 | 0.29 | 94 | 1002.1 |
| 20260510001514 | 57 | 199 | 1.7 | 1.7 | 0.00 | 0.29 | 0.29 | 94 | 1002.2 |
| 20260510001012 | 57 | 215 | 2.6 | 2.6 | 0.00 | 0.29 | 0.29 | 94 | 1002.0 |
| 20260510000512 | 57 | 211 | 0.9 | 0.9 | 0.00 | 0.29 | 0.29 | 95 | 1002.2 |
| 20260510000010 | 57 | 236 | 0.9 | 0.9 | 0.00 | 0.29 | 0.29 | 94 | 1002.0 |
| 20260509235507 | 57 | 211 | 0.9 | 1.7 | 0.00 | 0.29 | 0.29 | 94 | 1002.0 |
| 20260509235003 | 57 | 209 | 0.9 | 1.7 | 0.00 | 0.29 | 0.29 | 94 | 1002.0 |
| 20260509234459 | 57 | 250 | 2.6 | 2.6 | 0.00 | 0.29 | 0.29 | 95 | 1002.0 |
| 20260509233957 | 57 | 218 | 2.6 | 2.6 | 0.00 | 0.29 | 0.29 | 96 | 1001.8 |
| 20260509233454 | 57 | 204 | 2.6 | 2.6 | 0.00 | 0.29 | 0.29 | 96 | 1001.8 |
| 20260509232950 | 57 | 229 | 1.7 | 2.6 | 0.00 | 0.29 | 0.29 | 96 | 1001.8 |
| 20260509232448 | 57 | 233 | 1.7 | 2.6 | 0.00 | 0.29 | 0.29 | 96 | 1001.7 |
| 20260509231944 | 57 | 215 | 1.7 | 1.7 | 0.00 | 0.29 | 0.29 | 96 | 1001.7 |
| 20260509231441 | 57 | 227 | 0.0 | 0.0 | 0.00 | 0.29 | 0.29 | 96 | 1001.9 |
| 20260509230939 | 57 | 258 | 2.6 | 2.6 | 0.00 | 0.29 | 0.29 | 96 | 1001.6 |
| 20260509230435 | 57 | 224 | 2.6 | 2.6 | 0.00 | 0.29 | 0.29 | 96 | 1001.8 |
| 20260509225931 | 57 | 223 | 1.7 | 1.7 | 0.00 | 0.29 | 0.29 | 96 | 1002.0 |
| 20260509225428 | 56 | 225 | 1.7 | 1.7 | 0.00 | 0.29 | 0.29 | 96 | 1002.0 |
| 20260509224924 | 56 | 206 | 0.9 | 1.7 | 0.31 | 0.29 | 0.29 | 96 | 1001.8 |
| 20260509224419 | 56 | 134 | 0.9 | 1.7 | 0.59 | 0.29 | 0.29 | 95 | 1001.8 |
| 20260509223917 | 56 | 147 | 0.9 | 0.9 | 1.21 | 0.23 | 0.23 | 94 | 1002.5 |
| 20260509223414 | 57 | 339 | 2.6 | 2.6 | 1.16 | 0.19 | 0.19 | 92 | 1002.2 |
| 20260509222911 | 67 | 331 | 4.3 | 6.1 | 0.00 | 0.00 | 0.00 | 70 | 1001.8 |
| 20260509222406 | 69 | 344 | 3.5 | 5.2 | 0.00 | 0.00 | 0.00 | 66 | 1001.4 |
| 20260509221901 | 69 | 287 | 3.5 | 4.3 | 0.00 | 0.00 | 0.00 | 55 | 999.9 |
| 20260509221359 | 69 | 221 | 6.1 | 9.6 | 0.00 | 0.00 | 0.00 | 55 | 999.3 |
| 20260509220855 | 69 | 220 | 7.8 | 11.3 | 0.00 | 0.00 | 0.00 | 53 | 999.5 |
| 20260509220351 | 70 | 287 | 2.6 | 5.2 | 0.00 | 0.00 | 0.00 | 53 | 999.9 |
| 20260509215846 | 70 | 159 | 7.8 | 13.9 | 0.00 | 0.00 | 0.00 | 55 | 999.8 |
| 20260509215343 | 70 | 212 | 6.1 | 7.8 | 0.00 | 0.00 | 0.00 | 53 | 999.7 |
| 20260509214840 | 70 | 209 | 0.9 | 0.9 | 0.00 | 0.00 | 0.00 | 53 | 999.9 |
| 20260509214338 | 71 | 223 | 7.8 | 12.2 | 0.00 | 0.00 | 0.00 | 53 | 1000.0 |
| 20260509213835 | 71 | 223 | 7.0 | 9.6 | 0.00 | 0.00 | 0.00 | 51 | 999.9 |
| 20260509213330 | 72 | 219 | 5.2 | 7.0 | 0.00 | 0.00 | 0.00 | 51 | 999.7 |
| 20260509212828 | 72 | 222 | 3.5 | 7.0 | 0.00 | 0.00 | 0.00 | 52 | 999.8 |
| 20260509212326 | 72 | 189 | 4.3 | 7.0 | 0.00 | 0.00 | 0.00 | 51 | 999.5 |
| 20260509211821 | 72 | 199 | 5.2 | 6.1 | 0.00 | 0.00 | 0.00 | 53 | 999.9 |
| 20260509211317 | 72 | 193 | 4.3 | 5.2 | 0.00 | 0.00 | 0.00 | 53 | 999.6 |
| 20260509210814 | 72 | 202 | 4.3 | 6.1 | 0.00 | 0.00 | 0.00 | 54 | 1000.0 |
| 20260509210312 | 72 | 216 | 4.3 | 6.1 | 0.00 | 0.00 | 0.00 | 54 | 999.7 |
| 20260509205811 | 72 | 239 | 4.3 | 7.0 | 0.00 | 0.00 | 0.00 | 55 | 999.7 |
| 20260509205307 | 72 | 226 | 3.5 | 5.2 | 0.00 | 0.00 | 0.00 | 55 | 999.8 |
| 20260509204802 | 72 | 232 | 4.3 | 7.8 | 0.00 | 0.00 | 0.00 | 56 | 999.9 |
| 20260509204258 | 71 | 222 | 6.1 | 7.8 | 0.00 | 0.00 | 0.00 | 55 | 1000.1 |
| 20260509203754 | 71 | 207 | 4.3 | 7.0 | 0.00 | 0.00 | 0.00 | 54 | 1000.3 |
| 20260509203252 | 71 | 213 | 3.5 | 4.3 | 0.00 | 0.00 | 0.00 | 54 | 1000.4 |
| 20260509202748 | 72 | 228 | 10.4 | 13.9 | 0.00 | 0.00 | 0.00 | 53 | 1000.6 |
| 20260509202245 | 72 | 218 | 5.2 | 7.0 | 0.00 | 0.00 | 0.00 | 55 | 1000.5 |
| 20260509201744 | 71 | 235 | 5.2 | 7.8 | 0.00 | 0.00 | 0.00 | 56 | 1000.5 |
| 20260509201241 | 71 | 235 | 7.0 | 8.7 | 0.00 | 0.00 | 0.00 | 54 | 1000.9 |
| 20260509200738 | 71 | 200 | 4.3 | 6.1 | 0.00 | 0.00 | 0.00 | 57 | 1000.9 |
| 20260509200238 | 71 | 246 | 4.3 | 6.1 | 0.00 | 0.00 | 0.00 | 56 | 1000.9 |
| 20260509195734 | 71 | 181 | 2.6 | 4.3 | 0.00 | 0.00 | 0.00 | 59 | 1001.0 |
| 20260509195229 | 71 | 201 | 4.3 | 4.3 | 0.00 | 0.00 | 0.00 | 56 | 1000.9 |
| 20260509194724 | 71 | 133 | 3.5 | 5.2 | 0.00 | 0.00 | 0.00 | 55 | 1001.0 |
| 20260509194221 | 71 | 218 | 1.7 | 2.6 | 0.00 | 0.00 | 0.00 | 58 | 1001.0 |
| 20260509193718 | 71 | 200 | 2.6 | 4.3 | 0.00 | 0.00 | 0.00 | 59 | 1001.2 |
| 20260509193217 | 71 | 209 | 4.3 | 7.0 | 0.00 | 0.00 | 0.00 | 57 | 1001.3 |